CZ-6A DEB, 56247

Orbit data source: Space-Track

CZ-6A DEB, 56247 is space debris in SSO originally from a launch on Fri, 11 Nov 2022 UTC launched from the Taiyaun Space Center, China (TSC). Debris objects in space refer to the collection of defunct objects orbiting the Earth. Examples of debris include non-operational satellites, rocket bodies, and fragments generated from explosions, collisions, or faulty payload assembly.

Loading next visibility...
Identifier
56247, 2022-151ABP
Orbit
SSO
Country
Flag of CNCN / PRC
Related business
Manufacturer
SAST
Mission
Spacecraft
Bus & Motor
Unknown
Mass
Unknown
Launch date (UTC)
2022-11-11 (3 years ago)
Launch vehicle
Unknown
Launch site
Taiyaun Space Center, China (TSC)
Object type
Payload
Rocket body
Debris
Shape & HBR
Unknown shape, 0.1 m
Radar Cross Section
Small (<0.1 m²)

Expand to show TLE details & history
Last TLE update: 22 hours ago

TLE from 22 hours ago
0 CZ-6A DEB
1 56247U 22151ABP 26129.61677644  .00003759  00000-0  54201-3 0  9995
2 56247  98.4370 182.5114 0113605 327.5762  31.8498 14.72604603172126
Epoch: 2026-05-09T14:48Z
TLE epoch observation values (Epoch: 2026-05-09T14:48:09.484Z)
Latitude
-0.00001°
Longitude
93.04024°
Altitude
588.155 km
Speed
7.602 km/s
True Right ascension
12h 10m 02s
True Declination
0° 00' 00"
Sunlit
Object was in full shadow at epoch
Visualization orbit readout
Latitude
Unknown
Longitude
Unknown
Altitude
Unknown
Speed
Unknown
Apparent Right ascension
Unknown
Apparent Declination
Unknown
Sunlit
N/A
Visualization observer readout
Local Sidereal Time
20:41:32
Azimuth
Unknown
Elevation
Unknown
Doppler factor
Unknown
Orbital elements
Apogee altitude
729.682 km
Perigee altitude
569.999 km
Semi-major axis
7,027.977 km
Eccentricity
0.01136
Inclination
98.437°
RAAN
182.5114°
Arg. of periapsis
327.5762°
True anomaly
32.54513°
Mean anomaly
31.8498°
Eccentric anomaly
32.19662°
Mean motion
3.68381 °/min
Orbital period
97.72 mins
BSTAR
0.00054201
Loading maneuver chart data...
Computing Atmospheric mass density...
Loading historical data...
Loading historical data...
Loading historical data...
Loading historical data...
Loading historical data...
Loading historical data...
Loading historical data...

Documentation

Showing up to 5 results
|